Location: Little Italy
(37.8008°N, 122.4108°W)
Time: 21:27:10
(UTC+00:00)

Cosmos 2195 Rocket - Pass Details

Date: 29 October 2020
Orbit: 948 x 994 km, 82.9° (Epoch: 24 November)

Event Time Altitude Azimuth Distance (km) Brightness Sun altitude
Rises 13:03:19 0° 194° (SSW) 3,660 7.4 -18.2°
Reaches altitude 10° 13:05:51 10° 197° (SSW) 2,710 6.7 -17.7°
Maximum altitude 13:12:00 65° 278° (W) 1,057 4.4 -16.4°
Drops below altitude 10° 13:18:07 10° 0° (N) 2,696 6.8 -15.2°
Sets 13:20:39 0° 4° (N) 3,640 7.5 -14.7°
